Regional Weather Roundup
Issued by NWS Little Rock, AR

Home | Current Version | Previous Version | Text Only | Print | Product List | Glossary Off
Versions: 1 2 3 4 5 6 7 8 9 10 11 12 13 14 15 16 17 18 19 20 21 22 23 24 25 26 27 28 29 30 31 32 33 34 35 36 37 38 39 40 41 42 43 44 45 46 47 48 49 50

693
ASUS44 KLZK 231305
RWRLZK

WEATHER ROUNDUP FOR ARKANSAS
NATIONAL WEATHER SERVICE LITTLE ROCK AR
800 AM CDT SUN APR 23 2017

NOTE: "FAIR" INDICATES FEW OR NO CLOUDS BELOW 12,000 FEET WITH NO
SIGNIFICANT WEATHER AND/OR OBSTRUCTIONS TO VISIBILITY.

ARZ001-003-010-029-231400-
NORTHWEST ARKANSAS

CITY           SKY/WX    TMP DP  RH WIND       PRES   REMARKS
FAYETTEVILLE   SUNNY     46  44  93 CALM      30.12R
FORT SMITH     SUNNY     52  42  69 NW6       30.12R
HARRISON       SUNNY     46  40  79 N7        30.10R
BENTONVILLE    SUNNY     45  39  81 N8        30.13R
ROGERS         SUNNY     45  40  82 N7        30.13R
SILOAM SPGS    SUNNY     46  37  71 NE8       30.13R
HIGHFILL       SUNNY     47  41  80 N10       30.12R
SPRINGDALE     SUNNY     46  41  81 N6        30.13R
$$

ARZ004-005-016-231400-
NORTH CENTRAL ARKANSAS

CITY           SKY/WX    TMP DP  RH WIND       PRES   REMARKS
BATESVILLE     SUNNY     48  41  76 NW5       30.05R
FLIPPIN        SUNNY     48  36  61 N8        30.06S
MTN HOME       SUNNY     48  37  65 CALM      30.07R
$$

ARZ040-041-231400-
WEST CENTRAL ARKANSAS

CITY           SKY/WX    TMP DP  RH WIND       PRES   REMARKS
MENA           SUNNY     52  46  82 NW3       30.08F
MOUNT IDA      SUNNY     51  44  77 NW5       30.05
$$

ARZ009-017-025-026-028-231400-
NORTHEAST ARKANSAS

CITY           SKY/WX    TMP DP  RH WIND       PRES   REMARKS
CORNING        PTSUNNY   50  41  71 N14G22    30.02R
JONESBORO      MOSUNNY   51  43  74 N9G18     29.99R
NEWPORT        SUNNY     51  45  79 N15       30.01R
WALNUT RIDGE   MOSUNNY   50  39  66 N17       30.01S
BLYTHEVILLE    CLOUDY    50  46  86 N22G29    29.96R
$$

ARZ022-023-033-042-044-231400-
CENTRAL ARKANSAS

CITY           SKY/WX    TMP DP  RH WIND       PRES   REMARKS
LITTLE ROCK    MOSUNNY   53  46  77 NW13      30.04R
N LITTLE ROCK    N/A     51  46  82 N7        30.05R
JACKSONVILLE   SUNNY     53  45  75 NW10      30.03R
CONWAY           N/A     54  46  76 NW10      30.05R
SEARCY         SUNNY     52  46  80 N9        30.04R
HOT SPRINGS    SUNNY     53  46  77 N5        30.06R
RUSSELLVILLE   SUNNY     51  45  79 NW5       30.07R
$$

ARZ036-231400-
EAST ARKANSAS

CITY           SKY/WX    TMP DP  RH WIND       PRES   REMARKS
WEST MEMPHIS   CLOUDY    51  48  89 N10G16    29.95R
$$

ARZ050-053-066-070-073-231400-
SOUTHWEST ARKANSAS

CITY           SKY/WX    TMP DP  RH WIND       PRES   REMARKS
ARKADELPHIA    PTSUNNY   53  47  79 NW8       30.07R
CAMDEN         MOSUNNY   54  45  71 NW6       30.06R
TEXARKANA      SUNNY     51  46  83 NW9       30.08R
EL DORADO      CLOUDY    51  48  89 NW9       30.05S
DE QUEEN         N/A     48  47  96 NW3       30.08R
$$

ARZ056-057-069-231400-
SOUTHEAST ARKANSAS

CITY           SKY/WX    TMP DP  RH WIND       PRES   REMARKS
PINE BLUFF     MOSUNNY   52  46  80 N14G20    30.03R
STUTTGART      SUNNY     52  39  62 NW12      30.01S
MONTICELLO     CLOUDY    52  48  86 NW7       30.01R

$$






USA.gov is the U.S. government's official web portal to all federal, state and local government web resources and services.